Location: Platte
(43.3870°N, 98.8440°W)
Time: 14:55:23
(UTC-05:00)

Landsat 7 - Visible Passes

Search period start: 26 July 2016 00:00
Search period end: 05 August 2016 00:00
Orbit: 702 x 703 km, 98.2° (Epoch: 26 July)

Date Brightness Start Highest point End Pass type
(mag) Time Alt. Az. Time Alt. Az. Time Alt. Az.
26 Jul 5.8 00:27:13 17° WSW 00:28:39 19° W 00:32:03 10° NW visible
26 Jul 5.7 21:53:22 10° E 21:56:09 16° ENE 21:58:57 10° NNE visible
26 Jul 4.0 23:31:40 38° S 23:33:21 66° WSW 23:38:07 10° NNW visible
27 Jul 4.6 22:36:06 22° ESE 22:38:31 37° ENE 22:42:53 10° N visible
28 Jul 5.4 00:15:00 22° WSW 00:16:19 25° W 00:20:15 10° NW visible
28 Jul 5.9 21:42:16 10° E 21:44:06 12° ENE 21:45:58 10° NE visible
28 Jul 3.7 23:19:26 41° S 23:21:08 87° WSW 23:25:55 10° NNW visible
29 Jul 5.0 22:23:53 18° ESE 22:26:23 28° ENE 22:30:27 10° N visible
30 Jul 5.1 00:02:46 28° SW 00:04:01 33° W 00:08:19 10° NNW visible
30 Jul 3.8 23:07:13 39° SSE 23:08:56 72° ENE 23:13:42 10° N visible
31 Jul 6.2 00:46:06 12° WSW 00:47:11 13° W 00:49:16 10° WNW visible
31 Jul 5.3 22:11:39 14° ESE 22:14:17 22° ENE 22:17:57 10° NNE visible
31 Jul 4.6 23:50:33 36° SW 23:51:45 43° W 23:56:18 10° NNW visible
01 Aug 4.0 22:54:59 34° SE 22:56:45 55° ENE 23:01:25 10° N visible
02 Aug 5.9 00:33:53 16° WSW 00:34:50 17° W 00:37:53 10° NW visible
02 Aug 5.6 21:59:26 11° E 22:02:12 18° ENE 22:05:20 10° NNE visible
02 Aug 4.2 23:38:20 44° SSW 23:39:29 57° W 23:44:12 10° NNW visible
03 Aug 4.4 22:42:47 29° ESE 22:44:36 42° ENE 22:49:05 10° N visible
04 Aug 5.6 00:21:40 21° WSW 00:22:30 22° W 00:26:11 10° NW visible
04 Aug 5.8 21:47:46 10° E 21:50:09 14° ENE 21:52:31 10° NNE visible
04 Aug 3.8 23:26:07 51° S 23:27:15 76° WSW 23:32:03 10° NNW visible
